Wind_Speed
5 5 5 6 5 5 4 4 4 4 3 3 3 3 4 4 4 5 5 5 5 5 5 6 6 6 7 7 8 10 12 12 8 5 6 5 2 5 7 5 3 7 11 9 9 9 7 6 6 5 5 3 1 0 1 1 1 2 3 3 4 4 3 4 7 5 1 5 5 2 4 6 7 2 1 2 6 10 10 9 11 9 12 15 15 14 13 11
5 6 6 6 5 6 6 5 5 5 5 4 4 4 4 5 5 5 6 6 6 6 6 6 6 7 7 7 8 9 13 13 8 7 7 4 1 2 5 7 5 7 12 12 11 10 7 6 6 6 4 3 0 0 2 1 2 4 2 3 5 4 2 4 6 5 4 7 7 4 3 4 7 4 1 5 10 9 12 13 10 12 16 17 17 20 19 14
5 5 6 5 5 6 6 6 6 6 6 6 6 6 6 6 6 6 7 7 7 7 7 7 7 7 7 7 7 9 12 11 8 6 6 6 2 1 2 6 7 8 13 12 12 11 7 6 9 7 4 2 1 1 2 2 3 3 2 5 7 5 3 4 7 7 7 7 9 8 2 4 6 3 1 6 11 10 13 15 10 12 14 12 13 15 14 13
6 5 5 5 5 6 6 7 7 7 7 7 7 7 7 8 8 8 9 9 9 9 9 9 9 8 8 8 7 9 10 8 4 4 10 6 2 1 2 5 8 10 13 11 11 11 7 8 9 5 3 3 1 1 4 3 2 2 4 8 4 1 4 6 8 9 6 4 7 8 4 7 5 2 6 6 9 11 13 13 13 15 15 12 11 9 7 9
7 6 5 5 5 5 6 6 7 7 7 8 8 8 8 8 9 10 10 10 10 11 11 11 10 9 8 7 6 7 8 5 2 8 8 2 1 1 2 5 9 11 13 11 10 10 8 8 7 3 3 4 3 3 5 4 2 2 7 10 5 2 4 6 5 5 3 1 5 7 7 7 2 4 11 10 9 12 12 10 12 15 16 15 13 7 5 8
8 8 6 5 5 5 6 6 6 6 7 8 8 8 8 9 9 10 11 11 11 11 12 11 11 9 8 6 4 3 4 4 3 7 5 5 4 3 4 7 10 13 14 12 11 10 7 6 6 4 3 4 5 6 3 4 3 5 8 8 7 5 7 6 2 2 3 3 6 7 7 5 4 11 12 13 16 19 17 14 15 17 16 14 11 7 7 10
9 8 7 6 6 6 6 7 6 6 7 8 8 8 9 10 10 11 11 12 12 11 12 11 11 9 8 4 1 1 2 6 7 7 8 9 8 5 6 9 12 15 15 14 12 9 6 7 7 4 3 4 5 6 2 3 4 7 8 5 6 5 8 8 2 3 4 7 10 7 7 9 12 13 10 13 18 21 20 17 18 20 17 13 11 12 13 14
7 8 7 7 7 6 7 7 7 7 8 9 9 9 9 10 11 11 11 13 12 12 11 11 10 9 6 1 2 2 3 9 11 11 12 12 9 7 9 11 15 16 15 15 12 9 7 8 7 3 5 5 3 4 3 3 6 9 11 6 3 4 8 9 3 5 7 9 9 7 11 18 16 9 14 20 18 18 18 18 19 18 16 13 13 15 14 15
6 7 7 6 6 6 7 7 8 8 9 9 10 10 11 12 12 12 12 13 13 13 11 10 9 7 4 1 2 4 5 9 12 12 12 10 9 8 11 12 16 18 15 14 12 10 8 7 7 5 5 3 3 4 4 5 5 7 9 6 4 7 9 8 7 9 9 8 6 7 16 19 9 4 16 23 16 14 15 16 15 12 12 13 13 14 13 14
6 7 6 6 7 7 8 9 9 9 10 10 11 12 13 13 14 14 14 14 14 14 12 11 8 6 5 3 3 6 4 6 8 8 9 8 8 9 13 12 16 19 13 11 12 11 8 5 5 4 2 0 3 3 4 5 2 0 4 8 9 12 10 7 9 11 9 8 8 10 18 17 2 1 14 11 0 3 7 10 11 9 11 12 11 11 11 12
7 7 6 7 7 8 9 10 10 10 10 11 13 13 14 14 15 15 15 15 15 14 13 11 8 5 4 4 6 7 2 3 5 7 8 8 8 10 13 11 14 18 12 8 11 12 7 4 8 4 1 2 3 3 3 3 3 4 4 10 12 12 12 10 12 11 7 6 7 11 16 16 3 3 15 12 0 1 5 10 13 12 13 13 12 11 8 10
7 6 6 6 7 8 9 10 11 11 11 13 14 14 15 15 16 16 16 16 16 15 13 10 7 5 3 4 9 10 7 7 8 9 9 8 8 10 11 10 12 16 12 7 9 14 8 5 12 5 1 3 1 2 2 1 2 3 3 9 13 12 15 13 10 6 5 4 4 7 9 11 9 11 18 17 9 5 7 12 14 13 13 12 11 9 8 9
5 6 6 6 7 7 9 11 11 12 12 14 15 15 16 17 16 16 15 15 15 13 12 9 6 4 3 4 5 8 12 12 11 11 10 8 8 8 8 8 11 14 13 7 5 11 10 8 11 5 1 3 2 2 2 1 0 4 2 4 11 11 10 6 2 1 2 4 7 6 6 8 10 14 16 10 6 7 10 14 13 12 12 11 10 9 10 12
4 5 5 5 6 7 9 10 12 12 13 14 15 16 17 16 15 14 13 13 12 11 10 7 5 5 3 6 3 3 7 8 10 11 10 9 7 6 7 8 11 12 12 8 3 6 11 9 6 2 1 3 1 2 2 0 1 5 2 2 5 7 6 1 4 2 2 3 7 6 7 8 12 16 12 1 1 6 10 15 14 13 14 13 12 12 13 14
3 4 4 5 6 7 8 10 12 12 13 14 15 17 17 14 12 12 11 9 8 7 5 4 7 6 2 7 4 3 4 4 8 10 9 10 8 5 6 8 9 8 8 7 3 5 11 9 4 2 1 1 1 3 4 2 2 3 3 5 3 4 7 6 3 5 6 1 5 7 6 8 11 16 11 2 1 4 9 17 18 18 19 17 15 13 14 14
2 3 3 5 5 7 8 9 12 13 14 14 15 17 13 10 10 10 7 5 2 4 6 5 8 5 3 4 2 1 2 3 5 7 8 10 9 5 7 8 6 5 5 4 6 8 9 7 2 1 1 2 4 4 3 4 4 4 4 7 6 6 8 8 5 5 5 1 5 10 8 8 9 13 13 5 5 7 12 20 21 21 21 18 16 13 12 12
2 3 3 4 6 7 8 10 12 13 15 15 16 15 8 6 7 6 5 5 6 8 7 4 7 4 3 3 2 2 1 3 4 3 6 9 8 8 9 7 5 7 9 8 8 8 5 2 0 0 1 2 2 2 3 5 6 4 4 5 6 8 8 8 8 2 5 5 7 11 11 13 13 14 18 16 15 14 16 21 22 20 19 18 15 13 13 12
4 4 5 5 6 8 9 10 12 14 15 15 17 12 4 4 5 6 8 9 10 9 6 4 5 3 3 3 2 1 3 2 3 2 5 8 9 10 8 5 5 9 9 6 4 3 0 1 1 2 3 3 3 4 5 7 9 8 5 6 6 7 8 10 10 5 4 8 10 10 13 16 16 15 16 19 20 18 18 20 19 18 19 19 16 14 13 10
6 6 7 7 8 9 10 11 13 15 15 15 15 8 1 2 2 6 5 4 5 2 1 3 5 2 2 2 2 0 3 4 4 3 6 9 11 10 6 6 6 6 6 3 3 3 1 2 2 4 5 7 8 9 11 10 8 8 6 7 9 8 9 12 14 11 8 11 13 15 17 16 15 14 14 16 17 19 21 18 15 15 16 17 15 12 8 8
6 8 8 8 10 10 11 11 13 15 15 15 13 4 1 2 1 2 1 2 4 3 1 3 7 4 6 2 2 3 3 3 2 3 7 11 11 9 5 4 4 2 3 3 3 3 1 4 6 7 9 10 10 12 14 8 4 4 5 8 9 10 12 13 16 12 3 5 10 13 18 17 16 16 15 18 19 20 22 17 13 15 16 15 11 7 7 7
6 8 8 9 11 12 13 12 13 14 13 13 11 3 1 2 1 1 3 5 7 7 7 7 7 9 11 3 4 4 1 1 2 3 8 11 10 7 4 4 5 4 2 2 3 3 2 6 8 12 13 6 3 6 8 8 7 9 8 9 9 9 12 12 14 13 3 2 8 10 16 17 17 19 18 18 18 19 19 15 15 18 17 9 6 8 7 5
8 9 8 9 11 13 14 13 13 14 11 10 8 4 2 1 1 0 1 5 6 6 9 8 4 9 12 5 2 3 1 4 2 4 8 9 5 4 4 5 5 4 3 3 2 2 5 8 11 15 8 1 1 1 4 8 10 10 7 7 7 8 11 10 10 7 2 1 8 11 15 15 17 22 20 17 15 15 15 16 17 15 12 8 9 9 8 7
11 10 9 8 8 11 13 13 14 12 10 7 7 4 2 1 2 2 2 3 5 4 5 5 4 7 8 4 3 5 5 7 3 3 9 10 3 1 4 7 6 2 4 7 7 5 5 6 11 12 4 3 6 4 4 7 7 8 7 6 7 8 8 7 5 1 3 5 9 12 14 12 15 16 12 10 10 10 14 17 13 6 6 8 8 6 6 6
10 8 7 7 6 9 11 13 12 9 7 5 5 4 3 1 3 3 2 2 4 4 2 3 3 4 4 1 4 7 7 5 1 2 8 9 4 3 4 6 5 4 7 11 11 10 8 1 2 4 4 8 10 6 7 8 7 8 8 7 10 10 10 10 6 5 8 7 4 10 12 7 6 2 2 2 3 7 14 12 6 3 4 4 4 4 3 4
9 8 6 6 5 6 8 10 7 5 5 2 2 4 4 2 3 4 1 2 3 3 1 2 2 2 2 2 2 4 4 3 0 0 4 5 3 3 2 2 3 6 8 8 7 10 9 1 4 3 3 6 8 7 10 8 6 7 7 11 14 13 13 13 9 7 7 4 3 8 10 3 2 3 1 2 3 10 12 6 5 5 6 5 5 4 4 7
11 10 7 6 4 5 7 6 3 3 4 1 0 3 3 2 2 4 1 2 3 2 1 2 1 2 3 2 1 2 4 3 1 2 2 1 1 1 2 2 1 3 3 4 3 5 4 1 2 3 3 4 6 8 8 7 6 6 3 6 10 12 11 10 8 5 5 4 2 3 5 6 3 3 5 5 7 14 10 4 8 10 9 5 5 6 8 10
15 14 12 9 7 6 4 2 4 4 2 2 1 2 1 2 2 4 2 3 3 1 2 0 0 1 2 1 1 2 2 1 2 2 1 0 0 1 3 3 2 0 2 2 2 2 2 3 2 3 4 5 6 8 6 8 6 4 1 1 2 5 5 4 4 4 4 6 3 3 4 8 6 2 3 7 10 12 8 5 12 12 8 7 8 10 11 11
14 14 13 12 11 9 6 3 4 3 2 2 1 2 2 1 2 3 2 4 3 2 2 1 2 1 1 1 1 1 0 1 1 1 2 0 0 1 3 4 3 2 3 4 5 1 3 3 4 6 5 6 6 3 3 10 6 2 2 1 1 0 1 2 2 4 3 5 4 4 4 6 7 1 2 7 7 6 5 5 13 12 8 9 11 12 12 12
10 11 11 11 11 12 10 7 6 4 4 2 1 2 3 2 3 1 1 3 1 2 2 1 3 1 1 2 1 2 1 1 1 1 1 1 1 1 2 2 2 3 4 4 7 3 2 2 3 6 5 5 3 2 1 8 5 1 3 3 4 3 2 1 2 3 2 5 6 6 9 6 7 2 4 2 2 4 3 5 11 10 10 11 11 12 12 10
7 8 9 10 10 10 10 9 10 8 5 4 2 3 3 3 3 2 4 3 1 1 1 1 2 0 1 4 2 1 1 0 1 1 1 1 1 1 1 0 1 3 3 4 7 4 2 2 1 4 5 2 4 4 2 2 1 2 4 1 1 2 1 1 1 2 3 7 6 8 14 9 5 1 3 2 1 2 3 3 8 10 12 13 12 12 11 9
5 5 7 10 10 9 7 6 10 10 7 4 1 1 2 2 0 4 6 2 1 0 2 1 1 1 2 2 1 1 1 0 1 2 2 2 2 2 1 2 2 2 2 4 6 4 3 4 3 2 2 2 5 3 2 2 1 1 1 1 2 2 1 2 1 1 5 7 2 3 7 9 8 3 1 1 1 1 2 5 8 10 12 13 12 11 11 10
5 5 6 10 10 10 8 4 5 7 7 5 2 0 1 1 2 4 2 2 0 2 1 1 0 2 1 0 0 1 1 1 1 2 2 2 2 3 4 4 2 2 4 3 2 1 3 5 3 0 1 4 4 2 2 2 2 3 2 1 3 3 2 3 2 2 5 5 1 3 1 5 9 6 5 9 6 2 3 4 6 9 12 13 11 10 10 10
6 5 6 10 11 12 11 7 4 5 7 7 3 1 2 3 4 3 3 2 1 0 1 1 2 1 2 0 1 1 0 1 3 2 1 2 1 3 5 4 2 2 4 1 1 3 3 1 3 3 2 6 9 6 4 3 5 6 5 4 4 4 4 5 4 3 6 2 2 1 2 4 7 5 9 10 4 8 8 6 7 11 14 12 10 10 10 11
7 7 7 9 11 12 12 10 6 5 9 9 3 2 2 6 3 2 5 6 2 1 1 2 2 1 1 1 1 1 2 1 3 2 2 2 1 3 4 4 4 2 2 2 3 3 5 5 4 6 1 7 13 9 2 2 5 6 3 2 4 4 5 5 4 6 8 3 2 2 2 4 4 1 3 3 9 10 9 11 12 13 12 9 9 11 12 13
9 10 9 9 12 13 13 12 8 8 12 8 2 2 6 7 2 2 4 4 2 1 1 2 3 1 2 2 1 1 3 2 2 3 2 3 2 2 2 3 6 5 2 3 2 1 6 7 1 2 1 6 10 4 2 3 2 3 2 1 4 4 4 5 5 4 5 4 2 4 3 4 3 3 3 6 13 11 10 13 13 12 11 9 10 11 11 12
10 9 9 11 14 15 15 13 10 12 11 5 1 5 6 4 2 2 2 1 1 1 0 1 2 1 4 2 2 2 3 2 1 2 2 2 2 3 2 1 5 9 6 3 2 2 5 5 2 3 1 4 3 0 2 2 2 3 3 4 2 1 1 5 6 0 0 6 6 4 6 6 7 8 1 11 14 12 11 12 12 11 10 10 10 10 9 9
8 7 7 11 14 16 17 15 13 14 8 2 4 7 4 2 3 4 2 1 1 2 1 2 2 3 4 3 2 2 2 1 1 2 2 2 2 3 4 2 3 9 7 2 2 3 4 6 2 3 3 1 2 2 1 1 1 3 3 2 1 1 0 3 5 2 3 8 5 5 12 12 9 6 5 13 13 11 11 10 10 9 9 10 9 8 8 8
6 5 6 12 17 17 17 17 17 13 5 2 9 10 4 3 4 3 3 2 0 1 2 4 4 2 3 4 3 2 3 3 3 2 2 2 3 3 4 2 2 3 3 1 1 1 1 5 4 1 1 1 2 2 2 0 1 1 1 2 0 2 3 3 3 3 6 9 6 8 14 12 9 10 4 6 9 10 9 8 9 9 9 8 7 7 7 7
6 3 3 8 15 17 18 20 16 9 3 5 10 9 5 4 3 2 3 2 2 1 3 6 5 3 3 3 2 1 3 4 2 2 2 3 4 3 3 2 1 1 2 2 3 1 2 3 3 2 2 1 3 3 4 3 2 1 1 2 0 2 4 3 2 2 6 9 8 9 10 9 9 8 4 4 7 7 7 7 8 8 7 6 5 5 5 5
5 2 1 2 10 18 21 20 13 7 7 7 8 5 2 2 2 1 1 2 2 2 3 5 5 6 6 4 3 2 2 3 3 4 3 2 4 2 2 0 1 1 1 1 2 0 1 2 3 0 0 1 3 4 4 4 4 4 4 4 3 2 2 3 3 3 6 9 9 10 10 8 4 2 5 8 8 6 7 8 6 5 6 5 4 3 3 3
3 1 1 2 10 20 21 15 9 7 8 7 8 6 2 1 1 0 0 1 2 1 0 2 4 4 3 4 4 2 1 2 3 4 3 2 4 3 2 3 2 1 0 1 1 2 2 2 4 5 3 6 7 3 3 4 3 3 4 5 6 6 4 6 7 7 8 8 7 9 10 5 1 4 6 8 7 6 7 7 7 6 5 4 4 3 3 3
2 2 1 3 14 24 18 9 6 4 6 6 5 4 1 0 1 1 1 1 1 1 1 1 3 2 2 5 5 2 2 3 3 3 3 3 5 4 2 3 3 0 1 3 2 1 1 2 5 8 7 10 11 3 2 2 1 1 4 3 3 3 4 7 8 5 5 4 3 6 8 3 3 4 6 8 7 7 6 7 7 5 4 4 4 3 4 4
2 2 2 5 19 23 12 7 7 4 5 4 1 1 1 0 0 1 1 1 1 1 1 1 3 4 5 5 6 4 3 4 5 7 6 5 5 3 3 4 2 0 1 3 2 2 1 1 5 7 7 8 8 0 4 1 1 2 3 2 2 4 6 7 6 4 4 5 4 7 8 3 1 1 5 8 8 7 6 5 6 5 4 5 5 5 6 6
2 1 2 5 20 21 9 6 7 6 7 6 6 7 5 2 2 2 2 2 2 2 2 2 3 4 4 1 2 4 4 3 5 6 5 4 2 2 3 5 3 1 1 1 1 1 1 2 3 5 5 4 5 3 1 1 1 1 2 1 2 5 7 7 4 3 4 8 10 10 8 4 2 3 4 6 7 6 6 5 5 5 4 4 5 6 7 7
1 1 1 1 9 11 5 3 4 7 10 10 11 12 10 6 3 3 5 5 3 2 3 2 1 3 3 1 1 2 4 4 3 2 1 2 1 1 2 3 3 1 0 2 2 1 2 2 2 5 6 5 6 6 3 0 1 2 2 3 3 4 5 6 5 5 5 6 10 10 8 4 0 3 6 3 5 5 6 5 4 4 4 3 3 3 4 4
1 2 1 0 0 2 2 0 1 5 8 9 9 9 12 12 5 2 5 6 6 5 5 5 2 2 4 5 5 6 7 7 5 4 4 4 2 1 0 1 2 2 3 3 4 2 2 3 5 8 9 9 10 9 6 4 6 7 7 7 9 9 8 7 7 8 7 7 8 8 9 11 9 12 14 4 5 4 4 4 3 3 3 2 2 1 1 1
1 1 2 2 1 2 3 0 2 4 4 6 6 5 10 13 8 4 4 3 3 4 5 5 4 6 6 6 7 8 8 8 7 7 9 8 4 0 0 0 2 2 1 1 1 2 3 6 9 11 12 13 15 15 13 11 10 11 12 13 13 12 11 11 11 12 11 10 9 8 12 15 12 15 18 8 1 3 3 3 2 2 1 1 0 0 1 1
0 1 1 1 1 3 3 2 3 4 4 5 5 4 8 11 8 6 3 1 0 1 3 3 5 9 10 8 6 5 5 7 7 7 7 5 2 1 0 1 2 4 2 1 1 1 3 8 9 10 12 13 14 15 14 11 10 11 14 15 14 15 15 15 15 15 13 12 12 14 18 19 16 18 15 6 1 2 3 3 1 0 1 1 2 2 3 3
0 1 1 2 1 1 0 1 2 4 6 6 4 5 9 10 9 6 1 1 1 1 3 5 4 3 5 5 4 4 5 5 5 4 2 0 1 1 2 2 1 3 2 0 1 1 3 5 5 6 9 10 12 13 10 9 10 11 13 13 13 15 17 17 17 16 15 17 18 20 23 23 18 12 3 4 4 3 3 2 2 2 3 3 3 4 4 4
0 1 1 1 2 3 2 2 2 2 4 4 4 5 7 9 11 6 1 1 5 3 2 6 3 2 1 1 1 4 5 2 5 5 1 1 2 1 1 3 2 2 2 0 1 2 3 4 0 1 6 9 9 10 9 8 9 11 11 12 14 17 17 16 16 16 15 17 19 20 22 18 8 2 6 5 3 2 2 1 2 3 4 5 5 6 5 5
2 2 1 1 2 3 2 1 2 1 3 4 5 5 5 7 8 4 1 2 3 3 1 2 1 2 2 3 4 6 4 1 2 3 1 1 3 1 1 1 1 1 1 1 1 2 3 3 2 2 6 6 6 9 10 7 8 11 12 15 18 17 14 14 14 13 14 15 17 17 16 9 0 5 4 4 3 1 2 3 4 4 5 6 7 7 7 7
3 2 1 1 1 2 3 2 2 3 3 2 3 2 1 2 1 1 3 1 5 3 4 5 2 1 1 5 5 4 4 4 3 2 1 1 2 2 3 3 2 2 2 1 1 1 2 2 2 3 5 5 7 9 5 4 7 11 10 13 16 15 15 16 14 15 17 15 13 11 7 2 3 4 2 2 1 2 4 4 5 5 5 7 8 9 9 8
Wind_Direction
10 5 360 0 354 354 351 346 345 342 341 340 338 333 331 331 332 334 335 335 336 342 340 343 347 348 352 352 349 344 332 322 309 286 262 262 258 223 221 222 216 202 196 181 168 159 143 160 166 159 168 158 323 309 139 21 168 217 225 238 250 246 228 193 211 212 271 297 273 210 173 250 281 275 170 252 240 250 261 246 234 235 240 240 250 263 262 265
5 359 358 355 346 347 340 336 336 332 329 327 324 320 317 315 315 316 314 317 318 319 323 326 330 334 340 342 343 338 326 316 294 270 253 225 161 232 232 221 210 191 185 182 179 170 165 178 167 167 185 191 238 103 212 186 197 227 217 240 245 242 210 192 225 218 230 278 290 278 199 234 279 308 35 269 269 261 270 269 237 236 248 242 244 251 250 250
2 356 355 348 343 341 333 333 330 327 326 323 325 320 314 310 308 308 305 309 309 309 312 313 319 326 328 332 336 335 327 312 290 256 193 151 118 189 220 212 203 186 185 189 188 185 192 177 165 173 193 212 167 140 222 172 197 226 214 248 249 240 229 216 234 231 240 278 290 281 253 249 265 269 209 258 277 268 262 270 254 248 261 251 238 239 234 230
358 353 352 343 337 332 330 331 326 325 325 326 328 320 314 310 307 306 304 306 306 305 306 307 313 317 321 326 329 335 328 302 284 165 156 136 74 138 215 209 193 185 185 189 188 188 182 155 157 173 202 212 156 188 225 188 192 181 201 249 261 218 245 231 229 237 250 281 277 277 287 276 269 209 223 242 275 268 253 256 255 264 278 277 264 240 206 213
351 349 347 337 332 327 327 326 325 329 327 328 325 319 313 306 304 302 301 300 301 302 303 305 309 314 319 319 324 335 327 307 160 150 165 178 344 266 231 203 191 185 182 183 172 167 160 148 149 149 212 220 170 193 222 185 170 207 219 248 261 191 259 250 221 234 241 236 257 262 275 285 299 235 233 223 250 264 262 264 261 269 279 280 279 262 202 215
346 348 344 335 333 326 327 327 330 330 327 329 322 319 314 307 306 302 299 297 297 298 298 302 307 313 317 314 317 318 308 300 182 179 213 245 269 274 213 194 186 182 182 178 156 155 155 151 177 183 207 232 204 212 221 159 178 252 234 240 251 230 249 258 179 181 186 212 249 256 282 300 273 270 250 213 232 255 265 278 276 276 277 277 278 264 238 233
344 347 342 337 338 334 335 332 337 336 330 329 324 321 314 310 306 301 300 297 296 296 297 302 306 310 314 315 291 241 242 261 249 236 253 257 259 245 205 189 184 185 183 173 158 167 164 168 202 197 205 235 220 217 198 153 190 252 256 241 249 241 248 259 222 197 219 240 255 272 298 282 261 275 275 229 233 253 266 274 272 274 276 273 269 259 254 250
340 341 341 342 344 344 342 342 348 343 335 333 328 324 316 310 303 299 297 294 294 294 295 299 302 309 310 283 203 244 211 247 264 264 264 260 249 225 199 182 184 186 183 184 176 174 170 185 199 168 223 236 208 202 168 199 209 227 253 258 243 248 254 264 250 228 246 249 254 273 275 269 264 282 286 266 252 255 264 267 266 271 272 267 264 261 257 256
337 338 340 342 345 346 349 356 355 346 342 339 331 325 317 310 303 298 294 291 292 290 292 293 296 302 291 172 198 263 230 250 269 269 267 255 238 213 189 185 188 185 187 197 186 175 180 199 199 189 244 241 189 204 169 221 230 215 250 281 278 275 273 270 262 243 244 247 225 241 263 267 271 307 277 270 265 256 255 262 267 271 269 263 260 259 254 255
337 337 338 345 354 0 6 6 359 352 349 342 335 328 319 313 306 300 294 290 289 288 288 286 289 286 261 174 213 261 251 262 267 259 261 244 227 200 190 196 191 187 189 194 187 183 193 203 175 173 275 232 199 207 167 214 262 71 280 297 280 278 280 260 261 255 244 251 215 222 262 268 244 83 268 269 22 238 252 266 270 268 267 264 259 259 255 252
341 340 348 3 16 20 19 13 5 359 353 347 339 331 322 315 308 301 295 290 287 285 284 283 282 269 233 181 231 260 246 263 268 253 251 233 213 197 199 206 196 195 191 184 198 198 204 181 136 126 276 165 192 194 193 241 339 8 324 297 279 277 279 251 253 257 237 249 217 214 258 269 235 192 254 261 51 357 292 281 275 270 268 269 266 264 258 253
348 356 11 24 29 27 22 16 10 2 354 348 340 334 326 317 309 302 296 291 287 284 279 275 264 242 220 222 242 251 249 255 265 260 248 224 205 201 204 208 201 205 201 192 213 209 210 169 160 178 207 148 206 206 227 294 355 319 305 295 290 287 282 265 256 252 210 225 176 189 250 264 237 220 243 257 271 295 293 279 276 272 269 270 268 264 262 261
6 16 26 31 29 27 22 16 11 4 355 347 342 336 327 319 312 304 299 293 289 283 274 264 247 215 230 265 242 244 253 251 252 254 245 223 209 204 204 206 202 207 214 216 232 216 206 179 179 201 113 196 257 110 155 108 131 273 255 288 296 291 284 263 220 104 203 201 153 177 260 271 251 250 254 257 274 290 285 279 277 273 272 271 266 265 265 261
22 27 29 28 26 22 18 14 10 4 354 347 342 335 329 323 315 310 306 297 289 278 264 246 216 172 206 268 276 267 260 246 241 242 238 225 206 193 194 200 201 205 215 219 244 212 192 173 160 157 136 242 294 115 208 137 202 275 277 238 277 281 281 160 136 145 256 188 154 200 263 271 273 278 278 291 318 286 285 284 285 280 278 277 271 268 265 265
26 29 25 17 14 12 11 10 7 2 354 349 343 336 331 327 325 323 316 303 292 264 227 184 175 162 241 268 269 292 261 237 233 234 235 221 200 184 185 186 190 196 202 206 208 173 171 160 143 177 173 158 227 241 267 311 249 255 275 258 231 239 269 284 231 207 248 253 159 211 263 264 262 278 286 84 141 262 280 285 287 284 280 279 277 270 268 271
17 11 7 1 356 360 3 1 2 359 354 351 345 338 333 334 338 335 330 327 310 172 150 150 164 165 290 268 231 279 233 215 225 234 228 209 206 198 167 158 150 150 149 138 133 133 142 146 148 275 241 201 216 235 273 288 259 211 233 264 262 257 278 296 279 217 209 176 192 218 259 277 259 281 293 282 242 260 277 282 282 281 281 280 278 277 275 275
350 345 341 350 346 349 354 355 358 357 354 352 346 340 337 347 350 2 37 81 103 117 122 140 152 162 268 235 241 261 182 203 215 227 207 197 205 189 152 129 108 115 109 102 118 120 115 136 160 273 214 228 194 192 255 262 258 233 219 246 260 259 271 289 291 269 157 190 230 226 241 265 266 277 288 286 281 277 274 276 276 277 281 281 281 282 279 283
322 339 332 339 343 343 346 348 352 356 355 353 346 340 344 2 17 69 85 103 104 105 104 116 145 199 235 193 263 260 103 153 173 151 181 176 176 174 150 121 125 126 119 108 121 131 117 156 236 237 214 212 185 195 231 239 258 275 269 268 275 256 250 265 275 285 264 260 272 262 251 265 272 268 270 276 280 280 271 267 272 276 280 282 283 279 281 298
317 337 332 335 337 335 338 341 346 353 355 354 350 343 26 13 52 101 91 100 111 132 115 145 183 258 283 223 292 262 119 135 146 137 151 150 157 158 126 116 130 135 145 155 174 170 169 149 174 229 223 218 204 204 227 242 267 286 286 278 282 277 264 266 270 274 287 285 284 279 274 280 284 277 273 273 275 277 273 270 276 280 278 277 275 277 301 329
310 321 321 329 332 330 331 333 341 350 355 356 353 342 130 8 254 133 34 258 239 255 320 212 211 267 293 267 135 163 159 150 148 144 149 148 151 141 104 109 121 149 179 170 168 148 201 201 189 217 233 234 218 215 235 260 312 289 272 269 268 276 276 274 278 281 303 295 277 273 281 289 289 284 278 274 274 273 274 281 286 277 271 270 277 304 353 354
301 305 312 325 328 328 329 330 339 348 354 358 360 2 100 20 306 332 325 270 249 243 253 240 221 252 264 247 138 153 142 196 138 124 154 151 153 159 151 153 162 186 183 101 108 109 217 217 207 229 242 256 241 227 245 262 269 258 260 270 268 267 271 272 281 290 343 317 272 269 282 291 292 286 274 266 267 269 275 283 275 266 265 276 332 351 358 359
282 284 294 304 313 321 327 333 339 345 350 5 29 62 100 79 255 353 319 284 268 234 239 246 232 251 255 253 189 152 82 249 186 131 160 150 161 203 160 162 194 196 140 129 143 160 214 224 226 234 239 48 70 181 229 243 251 254 251 262 268 266 275 272 267 287 33 285 287 298 295 293 284 277 273 269 263 263 268 262 258 265 280 313 347 340 341 350
270 272 275 277 296 314 324 332 335 341 349 16 54 80 109 148 185 152 161 279 287 247 227 239 232 243 253 265 216 185 220 243 232 169 169 157 167 205 162 182 200 173 154 190 209 216 222 224 233 239 215 193 235 206 213 245 246 242 242 255 266 265 274 270 249 343 10 278 294 304 292 282 272 263 266 279 270 262 261 255 259 291 326 329 339 342 352 351
265 262 259 261 285 303 314 323 326 335 349 26 63 66 77 111 163 156 183 264 280 273 232 215 226 236 254 271 181 189 214 231 242 179 171 170 168 143 186 198 189 196 205 209 216 233 246 216 202 237 192 216 237 223 221 246 249 236 231 240 259 263 263 265 282 343 313 279 305 314 295 272 262 236 134 235 248 264 264 260 282 25 56 14 23 32 7 4
247 244 246 254 264 284 302 312 312 323 339 13 61 48 70 90 152 164 246 285 253 269 190 172 200 212 186 98 131 180 195 185 289 348 163 188 175 137 179 179 201 227 212 203 219 248 262 234 128 168 171 203 221 230 227 227 251 257 227 228 246 262 269 273 295 333 307 275 50 348 320 286 160 116 178 259 273 274 274 289 341 22 61 61 49 39 33 40
235 234 235 239 246 275 298 304 266 295 330 254 273 31 65 68 140 175 238 302 254 237 132 175 184 166 152 80 37 168 171 163 30 28 124 211 277 172 209 141 182 254 188 172 219 251 264 64 135 189 172 169 204 245 230 198 240 268 237 228 243 257 267 275 293 312 297 295 30 12 308 288 259 214 253 276 263 260 270 360 28 37 48 57 56 43 42 42
236 237 237 244 257 267 280 280 243 274 316 229 265 28 31 52 131 202 243 287 270 164 112 326 5 147 150 33 337 181 178 143 87 70 79 29 26 178 227 193 172 170 134 165 253 231 165 86 85 165 181 187 214 250 214 178 223 263 46 14 234 249 257 251 267 260 276 309 301 189 233 281 284 240 248 245 240 256 277 24 55 58 43 36 52 50 45 40
240 240 239 244 251 247 241 248 252 255 252 241 334 1 349 30 188 232 266 279 286 105 100 61 106 84 89 82 358 93 346 327 127 89 49 41 117 148 228 231 213 179 158 203 248 228 129 160 166 157 180 211 217 256 166 177 214 306 57 46 92 81 219 185 247 258 277 312 282 183 174 271 279 214 229 246 249 281 298 45 62 64 47 39 49 50 47 42
239 237 234 234 236 237 235 235 238 244 251 252 304 325 336 302 241 238 210 256 284 94 61 81 140 86 76 161 118 85 126 324 28 46 93 158 132 66 239 227 185 181 174 216 246 256 108 190 198 173 195 220 198 26 136 187 208 106 125 106 88 86 84 142 267 283 278 281 263 185 171 251 289 190 181 238 289 286 246 88 70 69 62 51 48 46 43 39
238 232 228 222 220 222 224 230 236 240 243 235 268 326 305 259 241 221 216 234 327 75 92 161 177 130 157 169 151 95 199 22 53 81 103 125 129 81 29 126 168 192 188 232 251 247 137 131 224 205 218 208 110 69 17 175 115 135 163 136 105 137 97 150 264 306 274 266 253 186 182 218 274 201 175 175 153 277 280 49 65 74 67 54 43 39 35 31
225 222 217 213 213 205 196 222 233 229 226 218 218 331 263 260 216 218 225 230 358 257 143 162 167 113 161 183 148 129 192 148 126 170 160 139 162 155 185 211 191 200 217 234 243 233 172 187 216 206 191 119 116 107 54 82 106 197 198 303 284 243 171 193 170 158 251 264 274 141 178 214 237 232 133 199 204 199 299 354 48 72 67 56 46 39 32 27
205 204 198 201 207 199 192 203 206 206 203 179 157 329 183 237 236 213 213 44 26 225 179 182 117 124 141 353 148 145 158 188 164 181 167 159 195 193 209 214 185 244 254 222 227 253 200 201 202 64 182 178 170 161 120 137 186 206 205 231 270 283 261 245 232 200 245 260 61 73 131 228 243 243 242 261 282 57 71 26 61 79 67 60 53 44 37 29
211 209 200 201 204 203 209 210 174 173 172 154 150 26 91 217 234 187 172 206 207 125 69 65 55 98 149 216 243 138 118 191 153 177 168 140 241 232 224 217 163 273 276 243 309 290 259 221 144 168 236 189 184 197 209 199 182 187 195 194 216 253 267 262 253 255 268 264 95 121 182 245 273 259 234 249 330 57 73 66 76 80 72 68 61 49 43 35
225 218 214 211 209 211 217 214 192 163 160 153 135 69 168 227 227 138 192 214 233 21 72 98 93 100 188 243 294 155 226 252 125 153 198 163 217 248 228 204 182 217 284 264 280 262 265 284 177 174 184 164 185 210 223 118 164 184 182 181 223 244 256 264 254 260 276 286 119 152 181 261 301 26 196 147 78 76 82 79 79 79 76 75 62 49 43 37
234 225 224 223 217 215 213 210 200 169 160 152 118 161 210 223 178 147 206 212 259 319 64 120 118 132 227 211 279 207 214 246 98 126 195 191 209 232 225 195 180 183 196 244 261 184 241 266 166 127 357 164 183 210 79 97 176 172 112 194 249 242 223 258 272 266 295 307 240 203 226 263 278 281 243 131 104 93 82 77 75 71 66 60 53 45 41 40
242 234 233 230 224 217 209 206 195 177 167 144 154 214 227 233 164 173 193 158 193 160 140 250 135 224 255 208 193 185 174 208 151 154 194 207 238 226 224 252 175 181 186 203 239 220 242 260 91 76 271 174 166 60 122 223 233 144 157 205 226 31 203 260 275 243 313 274 257 238 260 271 279 286 237 119 114 98 79 72 71 67 60 58 53 45 41 42
236 231 231 227 224 217 209 202 186 179 173 137 215 229 235 233 215 206 172 125 164 106 129 239 210 217 249 239 212 165 151 193 163 177 195 200 239 201 203 258 177 190 207 212 246 246 266 276 222 171 218 165 29 341 170 303 325 141 184 223 114 32 296 250 264 251 230 254 249 237 261 275 280 278 110 116 120 105 87 78 75 70 64 65 61 51 44 41
208 209 241 235 225 217 208 197 182 172 158 178 225 235 232 214 222 208 166 132 64 79 160 227 239 224 237 248 241 140 166 201 156 169 206 211 225 169 174 252 134 182 241 136 215 268 318 282 264 171 227 102 81 266 222 175 16 121 240 301 348 243 233 201 225 249 244 253 250 233 249 260 257 256 235 142 128 109 97 87 77 68 65 68 66 60 50 42
173 169 263 237 215 209 201 188 175 164 171 206 225 235 228 221 221 184 174 147 121 153 214 234 238 239 240 230 220 142 186 198 150 185 214 216 227 173 145 248 129 37 309 179 203 307 36 278 285 48 34 87 131 215 221 177 123 100 254 270 289 260 259 234 218 276 258 259 262 247 244 245 248 263 256 134 107 93 94 89 76 69 72 72 70 68 57 51
168 169 276 198 187 192 186 177 171 178 200 213 226 226 200 231 241 189 211 208 181 183 222 226 216 230 243 224 216 234 225 211 202 228 222 205 241 226 95 12 136 89 320 209 203 279 76 252 262 247 103 234 207 203 216 219 200 198 218 225 220 217 264 272 246 235 247 257 261 259 254 247 255 16 99 108 89 79 93 96 95 93 94 92 87 89 83 74
189 209 224 125 166 173 170 172 182 191 205 225 234 228 210 214 209 163 25 205 220 247 68 198 215 230 242 242 241 220 178 220 211 229 235 208 245 253 57 17 346 89 173 250 212 223 230 225 246 259 246 246 255 225 201 242 231 217 227 224 232 232 235 260 247 216 226 247 257 264 263 248 107 74 102 108 103 111 118 120 124 122 122 120 105 90 77 64
211 192 138 127 163 165 164 185 203 188 212 225 225 222 219 117 164 171 89 71 217 264 24 183 226 233 228 248 256 226 195 233 213 219 239 230 237 245 30 8 328 338 271 285 280 271 285 206 242 258 251 255 270 286 119 207 178 222 245 228 250 251 229 249 259 250 244 252 279 277 263 245 80 86 111 118 127 131 131 131 124 117 109 96 79 65 55 41
203 179 77 143 167 167 167 198 204 204 224 225 239 227 191 142 218 184 152 151 197 214 233 216 221 236 242 251 252 233 220 235 233 234 242 245 241 256 357 350 320 285 289 280 295 16 25 240 248 258 257 263 270 218 92 84 157 210 247 237 260 263 256 259 267 292 281 258 268 268 253 245 40 89 122 125 134 129 119 118 113 104 85 62 50 42 35 27
165 168 25 155 174 177 183 202 203 212 220 227 243 241 231 225 238 233 216 215 208 183 200 229 228 238 248 252 237 229 223 242 252 244 239 246 237 80 24 360 5 2 331 300 292 344 303 264 281 286 277 271 261 233 144 55 120 231 275 287 265 259 272 278 271 275 257 227 231 250 258 248 138 147 148 130 127 121 108 103 103 104 93 67 52 39 29 24
114 171 347 163 179 190 212 216 206 213 216 225 235 240 245 245 231 230 229 232 228 187 207 247 219 221 237 182 106 222 217 224 254 254 197 225 245 87 24 358 37 103 235 94 125 185 272 261 274 285 279 270 270 271 270 272 358 328 294 284 296 280 276 287 278 267 261 229 231 250 270 279 312 260 252 183 131 126 117 111 109 106 104 95 79 56 41 35
143 167 171 186 200 241 254 285 206 216 216 223 232 239 242 244 250 222 213 233 237 209 226 250 219 204 239 229 237 256 244 226 226 246 253 251 248 108 335 331 58 127 161 127 126 159 233 238 231 250 263 268 273 278 285 290 286 283 280 279 284 283 279 279 268 260 277 287 269 263 273 279 283 282 278 265 116 122 130 130 131 121 120 119 110 102 86 70
209 164 156 168 192 225 233 247 201 212 209 214 222 237 240 242 249 239 211 234 241 209 225 242 212 211 225 224 235 253 252 237 229 242 256 257 247 185 82 34 37 24 186 169 142 167 220 251 242 242 252 258 265 272 276 279 276 274 277 276 275 279 277 268 261 264 282 289 276 271 277 279 279 283 287 295 105 138 140 139 140 123 132 136 98 313 340 352
262 119 89 310 245 206 218 218 188 198 205 205 213 251 250 241 232 224 210 124 53 207 222 232 219 222 230 236 239 241 246 247 242 239 246 254 251 228 197 132 60 357 332 224 252 178 235 260 255 251 260 262 267 274 276 277 277 272 270 269 272 274 269 264 266 272 276 272 271 280 283 280 281 282 285 298 81 121 111 121 134 120 230 250 293 308 328 338
108 115 11 346 358 143 129 61 126 188 209 201 205 237 244 243 234 221 143 84 245 217 211 229 231 225 251 267 260 244 245 250 259 253 221 255 328 265 269 254 128 31 22 275 278 247 235 257 257 261 270 266 265 271 272 271 273 269 266 268 269 267 265 267 273 273 268 264 268 275 274 272 277 282 290 83 85 94 101 129 200 241 252 252 267 286 298 309
105 141 84 68 82 79 44 41 90 177 215 212 225 227 224 238 243 239 58 283 250 243 221 237 243 64 44 285 210 245 256 259 271 269 200 168 251 227 256 258 195 78 27 286 281 293 264 265 12 323 270 259 254 262 263 262 268 270 270 266 262 262 263 266 268 267 264 263 262 264 266 267 274 68 95 98 90 98 117 232 266 263 260 255 259 271 281 291
73 41 59 113 126 119 108 78 93 179 220 219 232 238 231 241 247 242 65 18 287 265 191 177 172 90 139 209 233 248 250 159 227 249 132 157 266 296 339 271 131 97 329 203 243 313 292 291 13 353 278 260 258 272 278 289 287 276 269 263 259 258 257 255 255 254 255 258 260 260 264 268 186 101 116 119 90 64 265 280 286 270 258 252 254 261 266 277
97 44 31 78 115 138 138 119 135 192 215 212 225 236 235 267 335 168 205 102 53 50 85 94 91 89 208 252 256 225 180 142 151 175 140 214 262 274 257 248 222 218 214 175 221 251 226 247 303 292 274 267 269 277 299 338 294 269 252 251 252 250 251 253 251 251 253 257 263 267 272 266 120 118 140 145 52 302 275 275 278 272 265 251 246 251 255 264
Height
841 841 840 840 840 840 839 839 839 839 839 838 838 837 837 837 836 836 835 835 835 834 834 833 833 833 832 831 831 830 829 827 826 826 825 822 821 821 821 821 822 823 824 826 827 828 829 830 830 831 831 831 833 833 834 834 834 834 835 840 839 835 834 829 829 827 825 822 818 819 822 823 821 819 818 818 817 814 811 808 804 803 799 796 794 793 794 794
841 841 840 840 840 839 839 839 839 838 838 838 837 837 836 836 835 835 835 834 834 833 833 832 832 832 831 831 830 829 828 826 825 824 822 821 820 820 820 821 821 822 823 825 826 827 828 829 830 830 831 832 834 834 834 834 834 834 835 840 835 827 825 822 821 820 821 821 817 818 821 823 821 818 818 818 815 812 810 803 800 800 795 792 792 792 792 792
840 840 840 840 839 839 839 838 838 838 837 837 837 836 836 836 835 835 834 834 833 833 832 832 832 831 831 830 829 829 827 825 824 821 819 819 820 819 820 820 820 821 822 824 825 826 826 827 829 829 831 832 833 834 834 834 834 832 835 838 828 820 822 821 820 819 818 818 818 818 820 822 819 817 818 817 813 811 808 800 797 797 791 789 788 787 789 791
840 839 839 839 839 838 838 838 837 837 837 836 836 836 835 835 835 834 833 833 832 832 831 831 831 830 830 829 829 829 826 825 822 818 818 819 819 819 819 819 820 821 822 823 824 825 826 827 828 829 831 832 834 835 833 832 832 832 833 830 821 821 823 820 819 818 818 821 822 820 821 820 815 816 816 814 814 808 799 794 792 790 787 786 785 784 787 788
839 839 839 838 838 838 837 837 836 836 836 836 836 835 835 834 834 833 833 832 832 831 831 830 830 830 830 829 830 828 827 830 822 816 818 818 818 819 819 819 820 821 822 823 824 825 826 826 828 830 831 831 833 834 830 828 831 832 827 820 818 823 823 816 815 818 820 823 823 821 821 816 814 815 811 811 813 800 788 787 786 784 783 782 782 783 784 786
838 838 838 837 837 837 836 836 836 836 835 835 835 834 834 833 833 833 832 832 831 831 830 830 829 829 829 828 829 827 830 832 820 816 819 817 818 818 818 819 819 821 822 823 823 825 825 826 828 830 831 831 832 831 828 829 831 829 821 818 818 820 821 815 816 820 821 823 822 818 815 813 815 810 801 805 804 789 782 784 783 780 780 780 781 782 782 783
837 837 837 836 836 836 835 835 835 835 835 834 834 833 833 832 832 832 831 831 830 830 829 829 829 829 828 828 828 828 830 826 816 817 818 816 818 817 818 818 819 820 821 822 823 823 824 827 827 828 830 830 829 828 828 829 832 831 823 819 819 819 820 815 817 820 820 820 816 814 814 812 813 807 797 795 793 784 782 782 780 778 778 779 779 780 780 779
837 836 836 836 835 835 835 834 834 834 834 833 833 832 832 831 831 830 830 829 829 829 828 828 828 828 828 828 828 829 829 821 815 817 816 816 817 816 818 818 818 820 820 821 820 821 823 825 826 828 829 828 827 827 830 830 830 830 823 818 820 820 818 815 817 820 819 817 814 816 815 807 805 806 797 786 785 784 781 780 778 777 777 778 777 777 777 776
836 836 835 835 834 834 834 834 833 833 832 832 832 831 831 830 830 829 829 828 827 827 827 827 827 827 827 827 828 829 824 816 815 816 815 816 816 816 817 817 818 819 820 820 820 821 822 823 824 824 825 825 827 827 829 830 826 824 821 818 820 819 815 815 816 816 816 813 813 816 812 802 801 805 794 778 778 780 778 778 776 777 777 776 775 774 774 774
835 835 834 834 834 834 833 833 833 832 831 831 830 830 829 828 828 827 827 826 826 825 825 826 826 826 826 825 828 827 817 813 815 815 814 815 815 816 816 816 817 818 819 819 820 820 820 820 821 822 824 825 827 827 829 829 824 822 823 821 819 817 813 814 813 811 812 810 810 813 808 799 801 807 792 773 775 778 777 779 776 777 776 773 773 771 770 770
834 834 834 833 833 833 833 833 832 831 831 830 829 828 827 826 826 825 825 825 824 824 824 824 824 825 825 824 826 821 813 813 815 813 814 814 814 815 815 816 817 817 818 818 819 819 818 819 820 822 824 825 826 828 829 826 824 826 826 822 817 814 811 810 810 807 809 808 807 809 808 800 802 807 791 774 776 777 778 779 775 775 772 769 768 767 767 766
834 833 833 833 833 833 832 832 831 831 830 829 828 827 826 825 824 823 822 822 822 822 822 822 824 824 824 823 819 814 812 813 813 813 813 813 814 814 815 816 816 817 818 818 818 818 819 819 820 822 823 823 825 828 829 826 827 828 827 824 816 812 808 802 802 805 807 808 805 808 810 802 798 795 782 774 775 775 778 776 773 771 768 766 765 764 764 761
834 833 833 833 833 832 832 831 830 830 829 828 827 825 824 823 822 821 820 820 820 820 820 821 822 822 824 820 812 810 811 812 812 812 812 812 813 813 814 815 815 817 817 817 817 817 819 819 819 821 823 823 824 827 827 827 830 827 827 828 820 814 808 798 801 807 808 807 804 807 811 798 785 781 773 773 775 775 777 773 770 768 764 763 762 761 760 757
833 833 833 832 832 832 831 830 830 829 828 827 826 824 823 821 820 819 818 818 818 818 818 820 821 822 824 816 808 809 810 811 812 811 811 812 812 813 814 814 814 815 816 816 817 817 818 819 820 822 823 824 824 826 826 828 829 826 827 827 825 822 809 796 802 809 806 805 804 806 810 796 781 775 771 773 776 778 777 771 767 765 761 759 758 757 755 752
833 833 833 832 832 831 831 830 829 828 827 826 824 823 821 820 819 818 817 817 816 817 817 819 820 821 822 814 807 809 809 810 810 810 811 811 812 813 813 814 815 815 815 816 816 817 818 820 821 822 823 824 824 827 827 827 825 825 829 824 822 824 809 796 798 801 801 804 806 806 805 794 782 774 770 774 777 778 778 771 766 763 758 756 753 752 750 747
833 832 832 832 831 831 830 829 828 827 826 825 823 822 820 819 818 817 817 816 816 816 817 819 819 820 821 813 808 808 808 809 809 809 810 811 812 813 813 814 815 816 816 817 817 818 819 820 823 824 824 823 824 827 829 829 825 823 828 823 818 818 811 801 794 792 798 803 805 805 799 790 782 775 771 773 775 776 776 769 764 760 754 751 749 747 747 745
832 832 832 831 831 830 830 829 828 827 825 824 822 820 819 819 818 817 816 816 816 817 818 819 819 820 817 810 808 808 807 808 808 809 809 810 812 812 813 815 816 817 817 818 819 819 820 822 826 825 823 824 824 826 833 835 825 818 822 822 818 816 814 807 795 790 797 801 799 800 797 789 783 778 774 771 770 772 772 765 759 757 752 748 746 745 744 744
832 832 831 831 830 830 829 828 827 826 824 823 821 819 819 818 817 817 817 817 817 818 819 819 820 823 816 808 808 808 807 808 808 808 809 810 812 812 813 814 816 817 817 819 820 820 822 824 826 824 823 826 826 826 832 828 815 811 815 817 815 815 814 811 801 791 792 795 795 796 793 786 781 778 776 771 767 767 765 760 756 754 751 747 745 743 743 745
832 831 831 831 830 830 829 828 827 826 824 822 820 819 818 818 818 817 817 818 817 816 818 818 817 818 814 807 807 807 807 808 808 808 809 810 812 813 814 814 815 816 818 820 821 822 823 825 828 827 822 821 820 820 818 812 808 812 816 817 816 815 810 805 798 789 791 797 796 793 787 781 779 776 773 768 764 763 757 754 755 753 750 744 741 742 744 747
831 831 831 830 830 829 829 828 827 826 824 822 820 818 817 819 818 817 818 817 815 813 813 813 811 810 808 805 806 807 807 807 808 808 809 810 811 813 814 816 817 818 819 820 822 824 824 826 827 822 813 809 810 811 808 808 814 819 821 820 818 816 809 800 794 788 793 801 796 789 784 779 777 774 770 766 761 758 753 752 755 751 744 740 740 743 747 748
831 831 830 830 830 829 829 828 827 826 825 823 820 819 820 822 822 821 820 815 810 810 810 809 809 808 804 804 805 806 806 807 807 808 809 810 811 813 814 816 819 819 821 823 824 826 826 826 822 812 805 805 809 810 811 814 817 819 820 819 817 815 808 798 794 790 795 804 796 787 785 782 777 771 764 761 760 756 751 752 750 742 737 737 742 746 747 747
830 829 829 830 829 829 828 828 827 826 825 824 822 821 823 824 824 824 824 819 811 808 809 807 807 807 802 803 805 805 807 807 807 809 809 810 811 812 813 816 818 818 823 826 824 827 828 824 816 806 805 811 815 816 817 818 817 817 817 820 819 812 803 797 795 795 803 805 793 787 789 784 774 764 757 755 756 752 749 746 741 737 738 741 745 747 747 747
828 828 828 828 828 829 828 828 827 826 826 825 824 824 824 824 824 824 825 825 816 807 806 806 806 806 803 803 804 805 808 807 807 808 808 810 811 813 813 814 817 819 823 822 819 823 824 817 809 805 808 815 817 818 820 819 818 816 815 818 816 807 806 803 797 800 805 802 796 795 790 777 764 756 751 751 753 751 745 739 737 740 744 747 748 748 748 747
827 827 827 826 827 828 827 828 827 827 826 825 825 825 824 824 824 825 824 823 819 809 804 805 805 804 803 802 802 803 806 806 806 807 807 808 810 812 812 811 816 820 819 816 814 815 813 810 810 810 813 816 817 818 820 819 814 811 813 816 811 803 805 803 797 802 801 797 800 796 780 765 756 754 749 746 752 751 740 734 738 743 746 748 747 748 749 748
825 826 825 825 826 826 827 827 826 827 826 826 826 825 825 824 823 825 823 821 820 809 803 804 804 803 802 802 803 803 804 805 806 807 808 808 808 811 812 812 814 814 812 813 817 816 809 809 813 815 817 819 819 816 814 815 812 809 809 808 804 802 802 801 801 808 803 797 801 800 788 770 755 756 752 745 750 746 733 733 740 742 745 748 748 748 750 749
824 824 824 824 824 825 826 826 825 826 825 826 826 824 825 824 823 824 822 823 818 804 800 804 803 803 802 802 804 803 803 805 807 808 808 809 808 809 811 812 814 814 814 816 819 816 812 813 815 816 818 821 823 817 809 811 815 811 806 803 804 804 805 807 809 811 805 799 801 804 804 785 760 756 754 747 748 741 733 736 741 745 749 749 750 750 750 752
823 823 823 823 823 824 825 825 825 825 824 825 824 825 825 823 824 823 820 826 817 799 799 804 803 803 802 804 804 802 803 805 807 809 808 809 809 808 809 811 813 816 819 819 817 813 813 817 820 818 819 821 822 815 806 810 814 810 809 809 808 807 810 813 813 811 806 803 803 804 806 796 773 762 755 748 746 740 737 740 744 751 754 752 752 752 754 758
821 822 822 822 822 823 824 825 825 824 824 824 823 825 824 822 825 820 823 833 816 795 797 802 802 803 802 805 805 803 807 807 806 808 809 809 809 809 809 809 810 813 817 818 813 810 812 815 816 817 820 819 813 807 806 809 810 810 814 816 812 812 814 813 811 809 807 808 804 799 804 799 776 762 759 754 753 749 744 744 750 756 756 754 755 757 760 763
820 820 821 821 821 822 823 824 824 823 823 823 823 824 823 824 823 818 831 836 808 792 799 801 801 804 803 805 805 805 808 807 806 807 808 809 808 808 810 810 811 811 815 815 809 807 810 813 813 812 813 809 804 809 812 808 807 815 820 817 815 817 816 814 811 806 808 811 800 792 798 794 773 757 757 759 759 755 745 743 754 758 756 758 760 763 767 768
818 819 819 820 820 821 822 822 822 822 823 822 823 823 823 823 822 826 839 831 804 798 802 800 802 805 804 804 805 807 807 806 809 808 808 809 808 809 811 813 813 811 814 816 811 806 809 816 816 809 805 801 804 817 821 814 815 821 818 811 812 814 813 814 810 807 811 804 787 781 785 789 780 759 750 753 755 753 748 746 754 757 755 761 767 770 773 772
817 818 818 818 819 820 820 821 820 821 822 822 822 823 823 824 826 835 835 818 805 805 802 801 806 805 805 804 803 806 807 807 810 808 807 809 809 810 812 812 811 812 813 813 810 808 811 815 811 803 802 803 805 813 822 823 822 820 813 808 810 809 808 812 811 812 812 794 781 784 785 788 784 762 749 748 747 751 753 752 757 758 758 766 773 776 777 776
817 817 817 817 818 818 819 819 819 820 821 821 822 822 824 830 833 832 824 811 807 805 798 802 807 805 807 806 802 806 807 806 808 808 807 810 810 807 807 805 804 808 808 804 804 805 805 806 803 801 803 804 802 806 817 821 819 817 813 812 815 812 810 812 808 808 802 788 788 796 793 790 776 756 749 745 742 749 755 757 761 760 763 772 777 780 781 780
816 816 816 817 817 818 818 818 818 820 820 821 823 822 827 836 832 821 816 810 805 801 798 802 807 808 808 804 802 807 808 804 806 809 808 811 812 805 802 804 804 805 805 805 806 803 798 799 803 804 799 797 798 799 803 806 810 813 808 808 814 813 816 815 807 806 798 787 795 800 795 788 769 751 745 742 746 756 759 763 766 765 770 778 781 783 783 781
815 815 815 816 816 817 817 818 819 819 820 821 822 825 831 832 821 814 813 806 800 800 801 804 807 810 808 804 804 806 805 802 804 809 808 810 812 806 800 804 807 806 806 809 807 805 804 798 795 795 791 791 794 789 788 793 802 806 800 802 805 801 808 810 800 799 790 782 794 802 794 780 763 753 747 745 755 762 762 766 770 771 776 780 782 783 781 781
813 813 814 814 815 815 816 818 818 819 820 819 822 828 828 819 812 812 810 802 799 799 801 803 804 806 806 805 807 806 803 803 805 809 810 808 808 804 797 798 805 806 808 810 805 805 807 794 786 793 793 792 792 787 789 793 798 805 804 804 803 793 794 798 792 790 790 789 793 793 783 765 751 747 743 746 758 763 766 769 772 776 780 781 783 783 784 786
811 812 812 812 813 814 815 817 818 819 818 819 825 827 819 809 807 808 803 799 800 799 800 804 803 805 807 804 805 807 804 805 808 807 809 809 806 804 799 795 799 801 801 805 801 799 802 792 788 797 796 793 795 792 794 794 793 803 806 799 796 794 791 794 793 791 799 801 786 775 772 759 748 745 741 747 757 764 771 774 776 781 783 784 787 789 790 791
810 810 810 810 811 813 813 815 817 818 818 821 826 820 810 805 801 800 800 800 801 799 802 808 805 802 806 802 803 808 806 806 809 807 808 809 802 798 798 795 795 796 793 796 797 795 799 794 787 790 791 795 803 799 795 796 793 799 803 794 792 797 796 796 800 798 801 801 784 771 770 763 759 756 748 749 753 761 775 780 782 786 786 788 792 793 794 793
808 809 808 806 808 810 811 814 815 817 819 821 821 813 806 802 798 797 799 800 801 801 804 810 805 800 803 803 802 806 807 805 807 807 806 805 798 792 793 792 794 798 794 796 799 797 800 799 788 786 791 797 803 800 794 796 798 798 799 795 794 798 795 794 802 803 801 799 786 774 769 765 761 753 745 747 750 760 777 783 785 789 789 791 793 794 796 795
807 810 807 802 804 808 810 813 814 816 818 816 814 809 803 799 797 797 798 797 800 803 805 806 804 801 803 802 802 805 806 804 805 808 805 802 796 790 790 791 794 801 799 797 800 798 800 805 797 791 796 798 798 798 793 793 798 801 800 797 796 797 794 792 797 798 795 794 787 778 772 762 752 743 743 751 755 763 777 784 789 793 793 794 795 795 796 795
807 807 804 800 802 805 808 813 814 814 813 808 805 804 801 799 798 798 799 798 798 801 803 803 803 804 801 800 801 802 805 804 804 805 803 799 795 790 791 793 794 800 802 798 800 800 802 810 805 796 798 798 793 790 786 784 789 795 797 797 797 796 794 795 796 791 789 790 785 782 776 759 748 750 754 762 769 773 779 786 792 795 795 797 797 796 796 795
806 805 801 800 802 804 808 812 810 808 807 803 800 800 799 799 799 799 800 800 799 799 801 802 803 804 803 802 802 802 806 807 805 805 804 800 798 796 798 800 797 799 802 799 800 801 802 806 805 797 796 794 784 781 783 782 784 787 789 789 788 788 792 797 794 783 779 781 779 781 777 760 756 763 766 773 780 782 784 789 793 796 797 798 797 797 796 795
804 802 800 800 801 803 806 807 804 803 803 801 798 797 798 798 798 799 800 801 801 801 802 804 804 805 804 803 802 803 807 809 808 806 805 801 797 797 803 807 803 800 801 800 799 800 802 804 803 797 792 787 779 780 787 788 786 788 788 785 785 787 789 794 792 782 777 780 781 784 780 768 768 775 775 779 784 784 787 789 791 795 797 796 796 795 794 793
802 800 799 800 801 802 804 805 802 801 800 797 795 796 798 799 800 801 801 801 802 802 803 804 803 804 803 801 802 804 806 810 807 802 802 801 798 801 807 807 804 801 801 801 800 803 806 805 804 798 789 783 781 783 791 793 791 792 791 789 793 795 791 791 793 791 792 789 784 786 780 768 774 783 781 782 785 786 789 789 790 794 795 795 795 793 792 791
801 801 800 800 801 801 802 801 799 799 799 797 798 798 797 798 800 801 802 802 801 802 805 804 802 802 803 803 804 805 807 810 807 802 802 801 801 807 810 805 804 804 804 805 805 807 810 807 807 807 799 793 789 787 791 794 794 797 797 796 798 798 795 794 794 798 801 790 780 783 775 761 770 784 783 783 785 787 791 793 793 795 796 796 796 794 794 793
800 801 801 801 800 801 800 796 796 798 798 799 800 799 798 799 798 799 801 801 800 802 803 803 802 801 802 805 808 808 808 809 809 807 806 804 803 808 810 807 806 807 808 811 810 810 812 810 809 811 809 805 799 791 790 793 796 800 801 801 801 799 798 799 800 802 799 783 774 778 773 761 767 776 774 776 783 786 792 796 796 797 799 798 798 797 796 795
798 797 799 801 801 801 800 798 797 797 798 800 801 799 799 799 797 797 799 799 799 800 800 801 802 803 804 806 808 808 806 806 809 809 807 805 804 807 811 810 807 809 811 812 811 811 812 812 808 808 808 806 801 794 792 795 800 802 801 800 799 798 799 802 805 803 795 788 783 779 774 770 769 766 762 767 779 786 790 795 797 798 799 798 798 798 797 796
797 794 796 799 800 801 801 800 800 798 798 799 800 797 796 797 798 799 799 799 799 800 800 800 801 804 805 805 807 808 804 804 808 808 806 805 803 806 813 813 811 812 813 812 812 811 811 809 804 802 803 800 796 794 793 796 801 803 802 802 800 798 799 802 802 796 792 795 792 777 772 775 771 763 759 765 777 785 787 791 794 795 796 797 796 796 795 794
797 795 796 797 797 797 798 799 800 800 799 799 798 796 795 796 798 799 799 801 802 801 802 803 801 801 801 802 806 808 805 805 807 806 805 806 807 807 810 813 815 816 814 814 813 811 810 807 799 798 800 797 795 795 794 797 802 801 801 801 799 798 798 798 796 792 792 797 790 777 775 776 771 765 763 770 780 785 788 791 793 794 794 794 794 793 792 792
799 799 801 800 798 800 802 803 804 803 801 801 801 798 796 797 797 798 799 802 803 802 803 804 803 805 805 806 809 809 807 807 808 805 805 810 813 813 810 810 815 817 817 815 813 812 812 808 803 805 805 801 800 799 798 801 804 802 802 801 800 799 796 795 793 790 791 791 784 780 779 774 768 768 772 782 788 788 791 793 794 794 793 792 792 792 790 790
800 800 801 802 803 808 811 809 806 804 801 802 801 797 796 798 798 798 801 804 804 802 802 802 806 812 814 813 814 812 808 809 810 809 810 813 814 815 814 812 814 817 819 818 815 814 814 811 810 812 811 806 802 800 800 802 804 805 805 803 800 798 797 797 794 790 789 787 780 779 777 770 772 780 785 788 791 790 791 793 792 792 792 791 791 790 788 788
800 800 800 801 802 807 811 810 808 805 802 801 800 797 796 799 800 801 805 810 810 805 805 808 812 816 817 815 815 815 813 816 817 815 818 818 817 818 819 818 818 820 820 820 819 817 818 818 816 817 817 810 803 803 803 804 807 810 808 802 797 796 795 792 787 784 782 780 777 776 772 770 778 788 790 789 791 792 791 790 790 790 790 790 790 788 787 787
801 801 800 800 800 803 809 811 811 807 802 801 802 801 802 805 805 805 806 812 816 813 812 815 815 815 815 814 814 815 817 820 821 821 822 823 823 823 822 822 823 823 821 822 821 819 820 822 821 821 822 814 805 805 808 814 818 811 798 790 786 785 784 780 777 775 772 771 774 774 774 779 786 789 789 789 790 791 790 789 789 789 788 789 788 787 786 785